Location: Cuzcurrita-R�o Tir�n
(42.5415°N, 2.9642°W)
Time: 20:37:22
(UTC+00:00)

CENTAUR R/B - Pass Details

Date: 27 February 2020
Orbit: 766 x 1422 km, 63.5° (Epoch: 06 April)

Event Time Altitude Azimuth Distance (km) Brightness Sun altitude
Rises 20:59:58 0° 324° (NW) 4,139 6.5 -33.7°
Reaches altitude 10° 21:02:39 10° 327° (NNW) 3,251 5.8 -34.2°
Enters shadow 21:09:50 68° 11° (NNE) 1,454 3.2 -35.4°
